Tucson, AZ

7:52 PM MST on October 23, 2019 (GMT -0700)
Tucson International

Weather History for KTUS - August, 2019

Change the Weather History Date:

Tuesday, August 27, 2019

  Actual Average Record
Temperature  
Mean Temperature 92 °F 85 °F  
Max Temperature 105 °F 98 °F 108 °F (2011)
Min Temperature 79 °F 73 °F 60 °F (1900)
Degree Days  
Heating Degree Days 0 0  
Month to date heating degree days 0 0  
Since 1 June heating degree days 0 0  
Since 1 July heating degree days 0 0  
Cooling Degree Days 27 20  
Month to date cooling degree days 666 546  
Year to date cooling degree days 2443 2325  
Since 1 June cooling degree days 2071 1823  
Growing Degree Days 42 (Base 50)    
Moisture  
Dew Point 58 °F    
Average Humidity 33    
Maximum Humidity 54    
Minimum Humidity 12    
Precipitation  
Precipitation 0.00 in 0.07 in 0.97 in (1999)
Month to date precipitation 1.15 2.13  
Year to date precipitation 7.25 7.65  
Sea Level Pressure  
Sea Level Pressure 29.74 in    
Wind  
Wind Speed 6 mph (WSW)    
Max Wind Speed 16 mph    
Max Gust Speed 25 mph    
Visibility 10 miles    
Events      
T = Trace of Precipitation, MM = Missing Value Source: NWS Daily Summary

Daily Weather History Graph

Daily Weather History Graph

Search for Another Location

Airport or City:

Astronomy

Aug. 27, 2019 Rise Set
Actual Time 5:55 AM MST 6:54 PM MST
Civil Twilight 5:30 AM MST 7:19 PM MST
Nautical Twilight 5:00 AM MST 7:49 PM MST
Astronomical Twilight 4:30 AM MST 8:19 PM MST
Moon 2:36 AM MST (8/27) 5:06 PM MST (8/27)
Length of Visible Light 13h 48m
Length of Day
12h 58m
Waning Crescent, 10% of the Moon is Illuminated
Aug 27
Waning Crescent
Aug 30
New
Sep 5
First Quarter
Sep 13
Full
Sep 21
Last Quarter

Hourly Weather History & Observations

Time (MST) Temp. Heat Index Dew Point Humidity Pressure Visibility Wind Dir Wind Speed Gust Speed Precip Events Conditions
12:53 AM 84.0 °F 83.3 °F 57.0 °F 40% 29.74 in 10.0 mi WSW 4.6 mph - N/A   Clear
1:53 AM 84.0 °F 83.3 °F 57.0 °F 40% 29.73 in 10.0 mi SW 4.6 mph - N/A   Clear
2:53 AM 82.9 °F 82.8 °F 59.0 °F 44% 29.74 in 10.0 mi SSW 4.6 mph - N/A   Clear
3:53 AM 82.0 °F 82.4 °F 60.1 °F 47% 29.75 in 10.0 mi South 4.6 mph - N/A   Clear
4:53 AM 80.1 °F 81.1 °F 61.0 °F 52% 29.75 in 10.0 mi South 3.5 mph - N/A   Clear
5:53 AM 80.1 °F 81.1 °F 61.0 °F 52% 29.76 in 10.0 mi SSE 5.8 mph - N/A   Clear
6:53 AM 80.1 °F 81.2 °F 62.1 °F 54% 29.78 in 10.0 mi South 5.8 mph - N/A   Clear
7:53 AM 84.0 °F 84.9 °F 63.0 °F 49% 29.79 in 10.0 mi Calm Calm - N/A   Clear
8:53 AM 89.1 °F 89.0 °F 61.0 °F 39% 29.79 in 10.0 mi Calm Calm - N/A   Clear
9:53 AM 93.0 °F 92.3 °F 59.0 °F 32% 29.78 in 10.0 mi NW 6.9 mph - N/A   Clear
10:53 AM 97.0 °F 96.5 °F 59.0 °F 28% 29.78 in 10.0 mi WNW 6.9 mph 16.1 mph N/A   Clear
11:53 AM 100.9 °F 100.0 °F 57.0 °F 23% 29.76 in 10.0 mi NNW 10.4 mph - N/A   Clear
12:53 PM 102.0 °F 101.6 °F 57.9 °F 23% 29.74 in 10.0 mi NW 6.9 mph 16.1 mph N/A   Clear
1:53 PM 104.0 °F 102.9 °F 55.9 °F 20% 29.72 in 10.0 mi North - - N/A   Clear
2:53 PM 105.1 °F 103.3 °F 54.0 °F 18% 29.70 in 10.0 mi WNW 13.8 mph 25.3 mph N/A   Clear
3:53 PM 105.1 °F 103.8 °F 55.0 °F 19% 29.68 in 10.0 mi West 12.7 mph - N/A   Clear
4:53 PM 104.0 °F 102.9 °F 55.0 °F 20% 29.68 in 10.0 mi NW 8.1 mph - N/A   Clear
5:53 PM 102.9 °F 100.9 °F 53.1 °F 19% 29.67 in 10.0 mi WNW 8.1 mph - N/A   Clear
6:53 PM 99.0 °F 97.3 °F 55.0 °F 23% 29.70 in 10.0 mi West 8.1 mph - N/A   Clear
7:53 PM 98.1 °F 96.4 °F 55.9 °F 24% 29.72 in 10.0 mi WNW 5.8 mph - N/A   Clear
8:53 PM 95.0 °F 93.7 °F 57.0 °F 28% 29.74 in 10.0 mi SW 3.5 mph - N/A   Clear
9:53 PM 91.0 °F 90.9 °F 61.0 °F 36% 29.75 in 10.0 mi Calm Calm - N/A   Clear
10:53 PM 91.0 °F 90.5 °F 60.1 °F 35% 29.76 in 10.0 mi SSW 5.8 mph - N/A   Clear
11:53 PM 89.1 °F 88.8 °F 60.1 °F 38% 29.77 in 10.0 mi SW 4.6 mph - N/A   Clear